Weather in Varvarinskiy

Russia / Republic of Buryatia     54°18′58″N   112°21′44″E
temp.,
°C
wind,
m/s
gust,
m/s
humid.,
%
clouds,
%
prec.,
mm/h
press.,
hPa
HPBL,
m
28 february, sun
sun2823:00−28wnw413910 0.0 1034313
02:00−32wnw22950 0.0 103621
05:00−34wnw22970 0.0 103819
08:00−34wnw22950 0.0 104121
11:00−26wnw388113 0.0 1039570
14:00−24wnw697611 0.0 1038894
17:00−26wnw48750 0.0 1038741
20:00−32wnw12866 0.0 104119
1 march, mon
mon123:00−35wnw119334 0.0 104219
02:00−36nw119422 0.0 104219
05:00−36wnw119333 0.0 104119
08:00−35wnw119256 0.0 104019
11:00−25w128450 0.0 1036298
14:00−21wsw247643 0.0 1031865
17:00−21s1290100 0.1 1028330
20:00−27sse1110099 0.1 102819
2 march, tue
tue223:00−31wsw0010097 0.0 102719
02:00−33ne0110085 0.0 102519
05:00−32ene0110090 0.0 102219
08:00−31e019995 0.0 102119
11:00−23sse129098 0.0 1016284
14:00−18s238699 0.1 1012621
17:00−18ssw119298 0.1 1010141
20:00−26wnw1110058 0.1 101320
3 march, wed
wed323:00−28wnw111008 0.0 101419
02:00−28wnw1110023 0.0 101519
05:00−30wnw1110081 0.0 101619
08:00−29wnw129862 0.0 101719
11:00−22nw477845 0.0 10161035
14:00−22nw567271 0.0 10161428
17:00−24nw4677100 0.0 1018924
20:00−31nnw228561 0.0 102319
4 march, thu
thu423:00−34nnw22820 0.0 102619
02:00−36nnw22830 0.0 102819
05:00−38nnw12820 0.0 103019
08:00−37nnw12800 0.0 103319
11:00−28nnw22730 0.0 1032383
14:00−25nnw34700 0.0 1031853
17:00−26nw367650 0.0 1033720
20:00−33nw228628 0.0 103819